GW1401 Weather Reports


Display with metric or nautical units.
time (UTC)temp
F
wind
direction
speed
MPH
gust
MPH
rain 1hr
in
rain 24hr
in
rain mn
in
humidity
%
barometer
mb
20260506105830 45 65 1.0 3.0 0.00 0.40 0.40 99 1015.1
20260506105326 45 141 1.0 1.0 0.00 0.40 0.40 99 1014.7
20260506104823 45 134 0.0 3.0 0.00 0.40 0.40 99 1014.4
20260506104321 45 76 1.0 1.0 0.00 0.40 0.40 99 1014.5
20260506103818 45 122 0.0 2.0 0.00 0.40 0.40 99 1014.5
20260506103316 45 124 0.0 3.0 0.00 0.40 0.40 99 1014.4
20260506102813 45 87 1.0 5.0 0.00 0.40 0.40 99 1014.3
20260506102311 45 41 2.0 7.0 0.00 0.40 0.40 99 1014.2
20260506101808 45 63 1.0 3.0 0.00 0.40 0.40 99 1014.2
20260506101304 45 254 1.0 5.0 0.00 0.40 0.40 99 1013.9
20260506100802 45 271 2.0 3.0 0.00 0.40 0.40 99 1014.3
20260506100300 45 206 0.0 3.0 0.00 0.40 0.40 99 1013.9
20260506095758 45 131 0.0 2.0 0.00 0.40 0.40 99 1013.3
20260506095255 46 133 1.0 3.0 0.00 0.40 0.40 99 1013.8
20260506094751 46 55 3.0 6.0 0.00 0.40 0.40 99 1014.0
20260506094250 46 283 2.0 3.0 0.00 0.40 0.40 99 1013.8
20260506093748 46 100 1.0 3.0 0.00 0.40 0.40 99 1013.8
20260506093245 46 293 2.0 3.0 0.00 0.40 0.40 99 1013.5
20260506092743 46 141 0.0 5.0 0.00 0.40 0.40 99 1013.6
20260506092241 46 333 1.0 3.0 0.00 0.40 0.40 99 1013.4
20260506091737 46 166 0.0 1.0 0.00 0.40 0.40 99 1013.4
20260506091235 46 96 0.0 3.0 0.00 0.40 0.40 99 1013.2
20260506090733 46 109 0.0 1.0 0.00 0.40 0.40 99 1013.1
20260506090229 46 64 1.0 3.0 0.00 0.40 0.40 99 1013.1
20260506085726 47 101 2.0 5.0 0.00 0.40 0.40 99 1012.9
20260506085222 47 115 2.0 5.0 0.00 0.40 0.40 99 1012.8
20260506084719 47 146 0.0 1.0 0.00 0.40 0.40 99 1012.8
20260506084215 47 351 2.0 3.0 0.00 0.40 0.40 99 1012.9
20260506083713 48 72 2.0 3.0 0.00 0.40 0.40 99 1013.2
20260506083210 48 353 5.0 6.0 0.00 0.40 0.40 99 1013.3
20260506082707 49 86 1.0 3.0 0.00 0.40 0.40 99 1013.0
20260506082203 49 290 3.0 5.0 0.00 0.40 0.40 99 1013.0
20260506081701 49 49 0.0 2.0 0.00 0.40 0.40 99 1012.6
20260506081158 49 300 4.0 9.0 0.00 0.40 0.40 99 1012.5
20260506080656 49 319 1.0 3.0 0.00 0.40 0.40 99 1012.2
20260506080152 49 216 2.0 3.0 0.00 0.40 0.40 99 1012.2
20260506073136 50 347 4.0 5.0 0.05 0.38 0.38 99 1011.9
20260506072633 50 102 2.0 5.0 0.12 0.38 0.38 99 1011.8
20260506072131 50 111 1.0 6.0 0.19 0.37 0.37 99 1011.9
20260506071628 50 80 2.0 6.0 0.12 0.36 0.36 99 1011.8
20260506071126 50 256 3.0 8.0 0.00 0.34 0.34 99 1011.9
20260506070622 50 72 1.0 6.0 0.00 0.34 0.34 99 1011.6
20260506070119 50 100 1.0 2.0 0.00 0.34 0.34 99 1011.5
20260506062057 51 99 1.0 3.0 0.07 0.32 0.32 99 1011.3
20260506061552 51 127 0.0 6.0 0.05 0.31 0.31 99 1011.4
20260506061050 51 351 2.0 6.0 0.12 0.31 0.31 99 1011.2
20260506060549 51 97 4.0 10.0 0.07 0.30 0.30 99 1011.5
20260506051017 51 39 1.0 3.0 0.24 0.22 0.22 99 1010.9
20260506050515 52 112 0.0 5.0 0.07 0.19 0.19 99 1011.2
20260506045005 52 114 2.0 6.0 0.05 0.18 0.18 99 1010.8
20260506044503 53 126 1.0 2.0 0.07 0.17 0.17 99 1010.9
20260506043959 53 138 2.0 7.0 0.12 0.17 0.17 99 1010.7
20260506043456 53 346 2.0 2.0 0.17 0.16 0.16 99 1010.7
20260506042954 53 119 2.0 3.0 0.24 0.15 0.15 99 1010.7
20260506042449 54 141 1.0 5.0 0.26 0.13 0.13 99 1010.9
20260506041946 55 134 2.0 7.0 0.26 0.11 0.11 99 1010.8
20260506041444 58 87 2.0 5.0 0.28 0.09 0.09 99 1010.6
20260506040941 59 107 0.0 0.0 0.40 0.07 0.07 99 1010.5
20260506040438 59 126 0.0 1.0 0.24 0.03 0.03 99 1010.6
20260506035934 59 127 0.0 3.0 0.19 0.91 0.91 99 1010.3
20260506035432 59 131 0.0 2.0 0.35 0.89 0.89 99 1010.6
20260506034928 60 144 1.0 1.0 0.40 0.87 0.87 99 1010.6
20260506034426 60 185 0.0 1.0 0.59 0.83 0.83 99 1010.5
20260506033923 60 127 0.0 2.0 0.17 0.76 0.76 99 1010.4
20260506033420 60 139 1.0 2.0 0.07 0.73 0.73 99 1010.3
20260506032917 60 128 0.0 2.0 0.00 0.72 0.72 99 1010.3
20260506032414 60 126 3.0 5.0 0.05 0.72 0.72 99 1010.5
20260506031910 60 242 1.0 8.0 0.05 0.72 0.72 99 1010.3
20260506031408 60 123 2.0 6.0 0.12 0.71 0.71 99 1010.3
20260506030905 60 137 3.0 10.0 0.19 0.71 0.71 99 1010.4
20260506030403 61 144 2.0 6.0 0.07 0.69 0.69 99 1010.7
20260506025859 61 193 1.0 3.0 0.00 0.68 0.68 99 1010.5
20260506025356 61 177 1.0 7.0 0.00 0.68 0.68 99 1010.5
20260506024854 61 61 1.0 7.0 0.00 0.68 0.68 99 1010.5
20260506024351 61 342 2.0 7.0 0.05 0.68 0.68 99 1010.5
20260506023846 61 151 2.0 7.0 0.00 0.67 0.67 99 1010.5
20260506023343 61 41 3.0 7.0 0.07 0.67 0.67 99 1010.4
20260506022840 61 156 3.0 10.0 0.07 0.67 0.67 99 1010.7
20260506022338 61 116 1.0 7.0 0.05 0.66 0.66 99 1011.0
20260506021836 61 163 3.0 5.0 0.05 0.66 0.66 99 1010.7
20260506021332 61 108 3.0 8.0 0.00 0.65 0.65 99 1010.7
20260506020829 61 322 4.0 7.0 0.00 0.65 0.65 99 1010.7
20260506020327 61 139 2.0 6.0 0.00 0.65 0.65 99 1010.8
20260506015824 61 132 2.0 5.0 0.00 0.65 0.65 99 1010.9
20260506015322 61 142 1.0 2.0 0.00 0.65 0.65 99 1010.5
20260506014818 61 118 0.0 3.0 0.00 0.65 0.65 99 1010.7
20260506014315 61 186 1.0 2.0 0.00 0.65 0.65 99 1010.7
20260506013812 61 168 3.0 5.0 0.00 0.65 0.65 99 1010.8
20260506013309 61 116 1.0 1.0 0.00 0.65 0.65 99 1010.6
20260506012806 61 121 0.0 1.0 0.00 0.65 0.65 99 1010.3
20260506012307 61 126 0.0 0.0 0.00 0.65 0.65 99 1010.6
20260506011800 61 136 0.0 0.0 0.00 0.65 0.65 99 1010.2
20260506011256 61 141 0.0 0.0 0.00 0.65 0.65 99 1010.4
20260506010754 61 131 0.0 0.0 0.00 0.65 0.65 99 1010.2
20260506010252 61 126 0.0 0.0 0.00 0.65 0.65 99 1010.1
20260506005749 61 132 0.0 0.0 0.00 0.65 0.65 99 1010.1
20260506005245 61 134 0.0 0.0 0.00 0.65 0.65 99 1010.2
20260506004741 61 129 0.0 0.0 0.00 0.65 0.65 99 1010.2
20260506004239 61 122 0.0 0.0 0.00 0.65 0.65 99 1010.1
20260506003735 61 126 0.0 0.0 0.00 0.65 0.65 99 1010.0
20260506003231 62 127 0.0 1.0 0.00 0.65 0.65 99 1010.2
20260506002727 62 150 1.0 1.0 0.00 0.65 0.65 99 1010.4
20260506002224 62 127 0.0 2.0 0.00 0.65 0.65 99 1010.2
20260506001719 62 120 0.0 0.0 0.07 0.65 0.65 99 1010.4
20260506001217 62 100 0.0 0.0 0.00 0.64 0.64 99 1010.5
20260506000714 62 130 0.0 0.0 0.00 0.64 0.64 99 1010.4
20260506000212 62 127 0.0 0.0 0.00 0.64 0.64 99 1010.3
20260505235709 62 126 0.0 0.0 0.00 0.64 0.64 99 1010.2
20260505235207 62 124 0.0 0.0 0.00 0.64 0.64 99 1010.4
20260505234703 62 127 0.0 0.0 0.07 0.64 0.64 99 1010.5
20260505234200 62 127 0.0 0.0 0.12 0.64 0.64 99 1010.5
20260505233657 62 127 0.0 0.0 0.05 0.63 0.63 99 1010.5
20260505233155 62 125 0.0 0.0 0.00 0.62 0.62 99 1010.3
20260505232652 62 121 0.0 0.0 0.00 0.62 0.62 99 1010.5
20260505232150 63 122 0.0 0.0 0.00 0.62 0.62 99 1010.3
20260505231646 63 130 0.0 0.0 0.07 0.62 0.62 99 1010.6
20260505231145 63 126 0.0 0.0 0.12 0.62 0.62 99 1010.8
20260505230643 63 128 0.0 0.0 0.12 0.61 0.61 99 1010.8
20260505230139 63 128 0.0 0.0 0.05 0.59 0.59 99 1010.9
20260505225635 63 127 0.0 1.0 0.00 0.58 0.58 99 1010.9
20260505225131 63 126 0.0 0.0 0.07 0.58 0.58 99 1011.1
20260505224628 63 140 0.0 0.0 0.12 0.58 0.58 99 1011.2
20260505224125 63 123 0.0 0.0 0.17 0.57 0.57 99 1010.9
20260505223623 63 85 1.0 1.0 0.24 0.56 0.56 99 1010.7
20260505223119 63 108 0.0 0.0 0.19 0.53 0.53 99 1011.1
20260505222615 63 107 0.0 0.0 0.31 0.52 0.52 99 1011.2
20260505222111 63 121 0.0 0.0 0.28 0.50 0.50 99 1011.5
20260505221609 63 123 0.0 0.0 0.24 0.47 0.47 99 1011.4
20260505221105 63 127 0.0 0.0 0.17 0.44 0.44 99 1011.5
20260505220603 63 104 0.0 0.0 0.12 0.43 0.43 99 1011.1
20260505220100 63 150 0.0 1.0 0.00 0.41 0.41 99 1011.0
20260505215558 63 135 0.0 0.0 0.00 0.41 0.41 99 1010.8
20260505215056 63 133 0.0 0.0 0.00 0.41 0.41 99 1010.9
20260505214554 63 123 0.0 1.0 0.00 0.41 0.41 99 1010.8
20260505214050 63 139 0.0 1.0 0.00 0.41 0.41 99 1010.8
20260505213548 63 140 1.0 2.0 0.00 0.41 0.41 99 1010.7
20260505213044 63 155 0.0 1.0 0.00 0.41 0.41 99 1010.9
20260505212540 63 127 0.0 1.0 0.00 0.41 0.41 99 1010.6
20260505212038 63 127 0.0 0.0 0.00 0.41 0.41 99 1010.9
20260505211535 63 128 0.0 1.0 0.07 0.41 0.41 99 1011.2
20260505211031 63 128 0.0 1.0 0.07 0.41 0.41 99 1011.2
20260505210528 62 126 1.0 2.0 0.00 0.40 0.40 99 1011.1
20260505210026 63 148 0.0 1.0 0.07 0.40 0.40 99 1011.4
20260505205524 63 128 0.0 1.0 0.07 0.40 0.40 99 1011.5
20260505205020 63 124 0.0 1.0 0.00 0.39 0.39 99 1011.8
20260505204518 62 131 0.0 0.0 0.05 0.39 0.39 99 1011.6
20260505204015 63 130 2.0 2.0 0.12 0.39 0.39 99 1011.6
20260505203512 62 143 0.0 1.0 0.07 0.38 0.38 99 1011.7
20260505203009 63 121 0.0 2.0 0.00 0.37 0.37 99 1012.0
20260505202505 63 131 1.0 2.0 0.00 0.37 0.37 99 1012.1
20260505202001 62 131 1.0 1.0 0.05 0.37 0.37 99 1011.8
20260505201458 62 127 0.0 1.0 0.05 0.37 0.37 99 1012.2
20260505200955 62 129 0.0 0.0 0.00 0.36 0.36 99 1012.0
20260505200453 62 130 1.0 1.0 0.07 0.36 0.36 99 1012.1
20260505195948 62 120 0.0 1.0 0.07 0.36 0.36 99 1012.2
20260505195446 62 129 0.0 1.0 0.00 0.35 0.35 99 1012.3
20260505194943 62 126 0.0 0.0 0.05 0.35 0.35 99 1012.6
20260505194441 62 126 0.0 0.0 0.12 0.35 0.35 99 1012.6
20260505193940 62 126 0.0 0.0 0.07 0.34 0.34 99 1012.6
20260505193438 62 180 1.0 1.0 0.00 0.33 0.33 99 1012.6
20260505192936 62 127 0.0 0.0 0.00 0.33 0.33 99 1012.5
20260505192434 62 118 0.0 0.0 0.05 0.33 0.33 99 1012.6
20260505191931 62 119 0.0 0.0 0.12 0.33 0.33 99 1012.6
20260505191430 62 129 0.0 1.0 0.24 0.32 0.32 98 1012.7
20260505190926 62 129 0.0 1.0 0.24 0.31 0.31 98 1012.8
20260505190421 62 187 0.0 1.0 0.14 0.28 0.28 98 1012.9
20260505185917 62 128 0.0 0.0 0.05 0.26 0.26 98 1012.8
20260505185415 62 118 1.0 2.0 0.12 0.26 0.26 98 1012.9
20260505184910 62 130 0.0 2.0 0.12 0.25 0.25 98 1013.0
20260505184407 62 126 0.0 2.0 0.12 0.24 0.24 97 1012.9
20260505183905 62 145 0.0 1.0 0.31 0.23 0.23 97 1013.0
20260505183401 62 111 1.0 2.0 0.31 0.21 0.21 96 1013.0
20260505182858 62 150 0.0 1.0 0.07 0.17 0.17 96 1013.4
20260505182355 62 121 0.0 1.0 0.00 0.16 0.16 96 1013.3
20260505181851 62 129 0.0 1.0 0.00 0.16 0.16 96 1013.3
20260505181349 62 148 0.0 2.0 0.05 0.16 0.16 96 1013.2
20260505180845 62 162 2.0 3.0 0.12 0.16 0.16 95 1013.2
20260505180342 62 130 2.0 3.0 0.26 0.15 0.15 95 1013.4
20260505175839 62 337 4.0 6.0 0.31 0.14 0.14 93 1013.5
20260505175335 63 239 2.0 3.0 0.35 0.11 0.11 92 1013.7
20260505174831 64 133 2.0 3.0 0.24 0.08 0.08 92 1013.5
20260505174329 64 200 0.0 1.0 0.12 0.05 0.05 90 1013.4
20260505173824 64 193 1.0 1.0 0.12 0.04 0.04 88 1013.4
20260505173321 64 132 1.0 1.0 0.05 0.03 0.03 87 1013.1
20260505172818 65 226 2.0 2.0 0.00 0.02 0.02 85 1012.9
20260505172316 65 125 3.0 6.0 0.07 0.02 0.02 84 1013.1
20260505171815 66 206 3.0 8.0 0.14 0.02 0.02 81 1013.2
20260505171313 69 187 3.0 6.0 0.00 0.00 0.00 72 1013.1
20260505170808 69 159 2.0 6.0 0.00 0.00 0.00 69 1012.9
20260505170306 70 127 6.0 8.0 0.00 0.00 0.00 68 1013.0
20260505165801 69 188 2.0 5.0 0.00 0.00 0.00 71 1012.9
20260505165257 69 158 0.0 2.0 0.00 0.00 0.00 70 1013.2
20260505164753 68 110 3.0 6.0 0.00 0.00 0.00 70 1013.2
20260505164250 68 143 3.0 9.0 0.00 0.00 0.00 70 1013.2
20260505163749 68 131 4.0 6.0 0.00 0.00 0.00 70 1013.3
20260505163247 68 166 4.0 8.0 0.00 0.00 0.00 70 1013.5
20260505162744 68 249 3.0 6.0 0.00 0.00 0.00 69 1013.4
20260505162241 68 212 4.0 7.0 0.00 0.00 0.00 69 1013.5
20260505161737 68 162 4.0 8.0 0.00 0.00 0.00 69 1013.5
20260505161235 68 151 4.0 7.0 0.00 0.00 0.00 68 1013.3
20260505160732 67 224 4.0 9.0 0.00 0.00 0.00 69 1013.3
20260505160230 67 135 2.0 3.0 0.00 0.00 0.00 70 1013.4
20260505153209 66 131 1.0 5.0 0.00 0.00 0.00 69 1013.6
20260505152706 66 111 2.0 3.0 0.00 0.00 0.00 69 1013.5
20260505152202 66 133 0.0 2.0 0.00 0.00 0.00 69 1013.5
20260505151657 66 92 1.0 2.0 0.00 0.00 0.00 69 1013.3
20260505151156 66 151 3.0 6.0 0.00 0.00 0.00 69 1013.3
20260505150651 66 231 5.0 8.0 0.00 0.00 0.00 68 1013.5
20260505150148 66 108 1.0 3.0 0.00 0.00 0.00 69 1013.4
20260505140617 66 170 1.0 3.0 0.00 0.00 0.00 70 1013.1
20260505140114 66 142 2.0 3.0 0.00 0.00 0.00 71 1013.2
20260505125030 62 127 0.0 2.0 0.00 0.00 0.00 82 1013.4
20260505124527 62 132 1.0 5.0 0.00 0.00 0.00 82 1013.2
20260505124023 61 116 1.0 2.0 0.00 0.00 0.00 84 1013.4
20260505123520 61 131 0.0 2.0 0.00 0.00 0.00 86 1013.7
20260505123016 61 132 0.0 2.0 0.00 0.00 0.00 87 1013.6
20260505122513 60 123 0.0 1.0 0.00 0.00 0.00 88 1014.0
20260505122010 60 141 0.0 1.0 0.00 0.00 0.00 90 1013.6
20260505121506 60 142 0.0 1.0 0.00 0.00 0.00 90 1013.6
20260505121003 60 132 1.0 1.0 0.00 0.00 0.00 92 1013.8
20260505120459 59 147 0.0 2.0 0.00 0.00 0.00 93 1013.6
20260505115958 59 127 0.0 0.0 0.00 0.00 0.00 94 1013.7
20260505115455 59 131 0.0 0.0 0.00 0.00 0.00 94 1013.8
20260505114953 59 128 0.0 0.0 0.00 0.00 0.00 94 1013.7
20260505114449 59 125 0.0 0.0 0.00 0.00 0.00 94 1013.8
20260505113946 59 116 0.0 0.0 0.00 0.00 0.00 94 1013.8
20260505113442 59 123 0.0 0.0 0.00 0.00 0.00 94 1013.7
20260505112938 59 123 0.0 0.0 0.00 0.00 0.00 93 1013.7
20260505112436 59 123 0.0 0.0 0.00 0.00 0.00 93 1013.6
20260505111932 59 117 0.0 0.0 0.00 0.00 0.00 93 1013.6
20260505111426 59 126 0.0 0.0 0.00 0.00 0.00 93 1013.6
20260505110923 59 119 0.0 0.0 0.00 0.00 0.00 92 1013.6
20260505110420 59 119 0.0 0.0 0.00 0.00 0.00 92 1013.7